Regional Weather Roundup
Issued by NWS

Home | Current Version | Previous Version | Graphics & Text | Print | Product List | Glossary Off
Versions: 1 2 3 4 5 6 7 8 9 10 11 12 13 14 15 16 17 18 19 20 21 22 23 24 25 26 27 28 29 30 31 32 33 34 35 36 37 38 39 40 41 42 43 44 45 46 47 48 49 50

000
ASUS43 KDMX 220306
RWRIA

WEATHER ROUNDUP FOR IOWA
NATIONAL WEATHER SERVICE DES MOINES IA
1000 PM CDT SAT OCT 21 2017

NOTE: "FAIR" INDICATES FEW OR NO CLOUDS BELOW 12,000 FEET WITH NO
SIGNIFICANT WEATHER AND/OR OBSTRUCTIONS TO VISIBILITY.

* - THESE STATIONS ARE NOT NWS STATIONS...THUS NOT UNDER NWS
QUALITY CONTROL.  THEY ALSO DO NOT REPORT WEATHER SUCH
AS PRECIPITATION OR FOG.

IAZ001>003-012>014-020>022-031>034-043>046-220400-
   NORTHWEST IOWA

CITY           SKY/WX    TMP DP  RH WIND       PRES   REMARKS
CHEROKEE *     CLOUDY    48  41  77 W5        29.92S
DENISON *      MOCLDY    50  41  71 NW8       29.95R
LE MARS *      CLOUDY    45  39  81 CALM      29.92F
ORANGE CITY *  CLOUDY    45  39  81 W3        29.91F
SHELDON *      CLEAR     45  39  81 W6        29.89S
SIOUX CITY     CLEAR     43  39  86 W3        29.94S
SPENCER        CLOUDY    49  40  71 W13       29.90R
STORM LAKE *   CLOUDY    50  41  71 NW9       29.92R
$$

IAZ055>058-069>071-079>083-090>094-220400-
   SOUTHWEST IOWA

CITY           SKY/WX    TMP DP  RH WIND       PRES   REMARKS
ATLANTIC *     CLOUDY    54  45  71 NW14      29.92R
AUDUBON *      CLOUDY    52  45  76 NW10G17   29.93R
CLARINDA *       N/A     55  46  71 MISG      29.97R
COUNCIL BLFS * CLOUDY    54  41  62 NW9G18    29.96R
CRESTON *      LGT RAIN  54  50  87 NW9       29.94R
HARLAN  *      MOCLDY    52  43  71 NW12G18   29.96R
LAMONI         TSTM      54  52  93 NW14      29.94R
RED OAK *      CLOUDY    55  43  62 NW13G22   29.95R
SHENANDOAH *   CLOUDY    55  43  62 NW8G15    29.97R
$$

IAZ047>049-059>061-072>074-084-220400-
   CENTRAL IOWA

CITY           SKY/WX    TMP DP  RH WIND       PRES   REMARKS
AMES           LGT RAIN  55  54  96 W8        29.87R
ANKENY *       LGT RAIN  55  52  88 NW8G14    29.90R
BOONE *        CLOUDY    54  50  87 NW9G17    29.87R
CHARITON *     HVY RAIN  55  54  94 W9        29.91R
DES MOINES     TSTM      56  53  90 W7        29.90R
GRINNELL*      RAIN      61  59  92 W8        29.86R
KNOXVILLE *    RAIN      55  54  94 W9        29.87R
MARSHALLTOWN   TSTM      56  55  97 W15       29.85R
NEWTON *       CLOUDY    57  55  94 NW14      29.86R
PELLA *        RAIN      59  57  94 W8        29.88R
PERRY *        MOCLDY    53  49  86 NW8       29.91R
$$

IAZ004>006-015-016-023>025-035-036-220400-
   NORTH CENTRAL IOWA

CITY           SKY/WX    TMP DP  RH WIND       PRES   REMARKS
ALGONA *       CLOUDY    52  46  82 NW14G22   29.87F
CLARION *      CLOUDY    54  52  94 NW14      29.86R
ESTHERVILLE    CLOUDY    50  42  74 NW10      29.88R
FORT DODGE *   CLOUDY    53  44  71 W10G18    29.89R
MASON CITY     CLOUDY    54  50  86 NW9       29.85R
FOREST CITY *  CLOUDY    54  50  87 W8        29.84R
WEBSTER CITY * CLOUDY    54  48  82 NW18      29.85R
IOWA FALLS *   LGT RAIN  56  52  88 NW7       29.86R
$$

IAZ007>011-017>019-026>030-037>042-050>054-066-220400-
   NORTHEAST IOWA

CITY           SKY/WX    TMP DP  RH WIND       PRES   REMARKS
CEDAR RAPIDS   CLOUDY    72  61  68 S13G25    29.83R
CHARLES CITY * LGT RAIN  59  59 100 NW9G17    29.82R
CLINTON *      CLEAR     70  60  70 S14       29.90R
DECORAH *      LGT RAIN  63  61  94 S9G20     29.81R
DUBUQUE        CLOUDY    69  61  75 S14       29.87R
MONTICELLO *   CLOUDY    72  63  73 S16G28    29.84S
OELWEIN *      HVY RAIN  63  63 100 SW22G43   29.84R VSB 3/4
WATERLOO       LGT RAIN  60  57  89 S17       29.81F
$$

IAZ064-065-067-068-078-220400-
   EAST CENTRAL IOWA

CITY           SKY/WX    TMP DP  RH WIND       PRES   REMARKS
DAVENPORT      CLEAR     71  59  65 S15G22    29.90R
IOWA CITY      CLOUDY    72  62  71 S13       29.86R
MUSCATINE *    PTCLDY    72  61  68 S10       29.88R
QUAD CITIES    CLEAR     71  59  65 S12       29.88R
$$

IAZ062-063-075>077-085>089-095>099-220400-
   SOUTHEAST IOWA

CITY           SKY/WX    TMP DP  RH WIND       PRES   REMARKS
BURLINGTON     CLEAR     72  62  71 S16       29.88S
FAIRFIELD *    CLOUDY    73  61  64 S17G26    29.84S
FORT MADISON * CLEAR     72  63  73 S8        29.90R
KEOKUK *       CLEAR     73  63  68 S14G20    29.88R
OSKALOOSA *    RAIN      61  59  94 SW14G24   29.89R
OTTUMWA        RAIN      62  60  93 SW10G22   29.88R FOG
WASHINGTON *   CLOUDY    73  63  68 S18G24    29.86R
$$

ABBREVIATIONS USED IN REMARKS
   TC - TEMPERATURES IN CELSIUS
  WCI - WIND CHILL INDEX
   HX - HEAT INDEX
  VSB - VISIBILITY
$$





USA.gov is the U.S. government's official web portal to all federal, state and local government web resources and services.